LPE216 SPJC-SPZO

Flight info

Callsign LPE216
Flight time 0h 52m
Altitude 33000
Route PAKOL UM668 POVLO DCT DARKI
Aircraft B77W/H-SDE1E2E3FGHIJ2J3J4J5M1RWXY/LB1D1

Departure

Time 2026-04-29 11:36
Airport Jorge Chávez International Airport (SPJC)

Arrival

Time 2026-04-29 12:29
Airport Alejandro Velasco Astete International Airport (SPZO)
Time Latitude Longitude Altitude Speed Heading
2026-04-29 11:10 -12.02410 -77.10922 96 ft 0 kts 64°
2026-04-29 11:27 -12.02413 -77.10929 98 ft 3 kts 64°
2026-04-29 11:27 -12.02422 -77.10948 98 ft 3 kts 64°
2026-04-29 11:27 -12.02430 -77.10964 95 ft 3 kts 67°
2026-04-29 11:27 -12.02434 -77.10977 96 ft 3 kts 98°
2026-04-29 11:28 -12.02431 -77.10991 95 ft 1 kts 118°
2026-04-29 11:28 -12.02432 -77.10991 95 ft 2 kts 129°
2026-04-29 11:28 -12.02440 -77.10990 95 ft 3 kts 166°
2026-04-29 11:28 -12.02456 -77.10992 100 ft 3 kts 191°
2026-04-29 11:29 -12.02470 -77.10997 98 ft 1 kts 200°
2026-04-29 11:31 -12.02475 -77.11000 101 ft 4 kts 213°
2026-04-29 11:31 -12.02483 -77.11028 100 ft 4 kts 270°
2026-04-29 11:32 -12.02461 -77.11074 98 ft 13 kts 311°
2026-04-29 11:32 -12.02349 -77.11140 98 ft 21 kts 328°
2026-04-29 11:32 -12.02214 -77.11208 94 ft 22 kts 335°
2026-04-29 11:32 -12.02069 -77.11278 88 ft 24 kts 334°
2026-04-29 11:33 -12.01918 -77.11353 89 ft 25 kts 334°
2026-04-29 11:33 -12.01760 -77.11432 85 ft 26 kts 334°
2026-04-29 11:33 -12.01597 -77.11512 73 ft 26 kts 335°
2026-04-29 11:33 -12.01429 -77.11595 64 ft 27 kts 334°
2026-04-29 11:34 -12.01255 -77.11679 62 ft 28 kts 335°
2026-04-29 11:34 -12.01078 -77.11767 58 ft 29 kts 334°
2026-04-29 11:34 -12.00898 -77.11855 56 ft 29 kts 334°
2026-04-29 11:34 -12.00742 -77.11932 51 ft 18 kts 334°
2026-04-29 11:35 -12.00687 -77.12019 53 ft 9 kts 267°
2026-04-29 11:35 -12.00691 -77.12039 54 ft 2 kts 255°
2026-04-29 11:35 -12.00695 -77.12052 55 ft 7 kts 249°
2026-04-29 11:35 -12.00761 -77.12102 53 ft 14 kts 186°
2026-04-29 11:36 -12.00854 -77.12082 52 ft 15 kts 155°
2026-04-29 11:36 -12.01206 -77.11912 62 ft 115 kts 154°
2026-04-29 11:36 -12.02295 -77.11386 287 ft 209 kts 155°
2026-04-29 11:36 -12.03593 -77.10736 1487 ft 202 kts 153°
2026-04-29 11:37 -12.04833 -77.10103 2642 ft 199 kts 152°
2026-04-29 11:37 -12.06100 -77.09470 3451 ft 209 kts 154°
2026-04-29 11:37 -12.07543 -77.08763 4161 ft 250 kts 154°
2026-04-29 11:37 -12.09171 -77.07964 4754 ft 265 kts 154°
2026-04-29 11:38 -12.10857 -77.07137 5096 ft 269 kts 154°
2026-04-29 11:38 -12.12539 -77.06312 5512 ft 269 kts 154°
2026-04-29 11:38 -12.14227 -77.05485 5942 ft 269 kts 154°
2026-04-29 11:38 -12.15913 -77.04658 6464 ft 268 kts 154°
2026-04-29 11:39 -12.17620 -77.03815 7067 ft 276 kts 154°
2026-04-29 11:39 -12.19363 -77.02954 7658 ft 280 kts 154°
2026-04-29 11:39 -12.21126 -77.02081 8264 ft 281 kts 154°
2026-04-29 11:39 -12.22896 -77.01205 8858 ft 282 kts 153°
2026-04-29 11:40 -12.24427 -76.99978 9445 ft 283 kts 127°
2026-04-29 11:40 -12.25402 -76.98220 10090 ft 293 kts 116°
2026-04-29 11:40 -12.26341 -76.96261 10754 ft 327 kts 116°
2026-04-29 11:40 -12.27382 -76.94072 11385 ft 357 kts 115°
2026-04-29 11:41 -12.28500 -76.91720 11981 ft 367 kts 115°
2026-04-29 11:41 -12.29608 -76.89399 12571 ft 369 kts 115°
2026-04-29 11:41 -12.30741 -76.87034 13178 ft 371 kts 116°
2026-04-29 11:41 -12.31901 -76.84620 13799 ft 383 kts 116°
2026-04-29 11:42 -12.33088 -76.82152 14353 ft 391 kts 116°
2026-04-29 11:42 -12.34292 -76.79654 14909 ft 392 kts 116°
2026-04-29 11:42 -12.35506 -76.77135 15481 ft 394 kts 116°
2026-04-29 11:42 -12.36716 -76.74622 16047 ft 396 kts 116°
2026-04-29 11:43 -12.37935 -76.72093 16701 ft 396 kts 116°
2026-04-29 11:43 -12.39155 -76.69558 17428 ft 398 kts 116°
2026-04-29 11:43 -12.40381 -76.67010 18170 ft 401 kts 116°
2026-04-29 11:43 -12.41620 -76.64434 18846 ft 406 kts 116°
2026-04-29 11:44 -12.42876 -76.61827 19502 ft 411 kts 116°
2026-04-29 11:44 -12.44153 -76.59191 20191 ft 417 kts 116°
2026-04-29 11:44 -12.45452 -76.56515 20877 ft 421 kts 116°
2026-04-29 11:44 -12.46762 -76.53819 21580 ft 425 kts 116°
2026-04-29 11:45 -12.48081 -76.51101 22318 ft 429 kts 116°
2026-04-29 11:45 -12.49419 -76.48341 23060 ft 434 kts 117°
2026-04-29 11:45 -12.50761 -76.45571 23778 ft 437 kts 117°
2026-04-29 11:45 -12.52105 -76.42798 24387 ft 441 kts 116°
2026-04-29 11:46 -12.53492 -76.39931 25008 ft 445 kts 117°
2026-04-29 11:46 -12.54854 -76.37117 25619 ft 449 kts 116°
2026-04-29 11:46 -12.56257 -76.34215 26238 ft 451 kts 116°
2026-04-29 11:46 -12.57633 -76.31368 26882 ft 453 kts 116°
2026-04-29 11:47 -12.59050 -76.28436 27550 ft 454 kts 116°
2026-04-29 11:47 -12.60436 -76.25568 28184 ft 455 kts 116°
2026-04-29 11:47 -12.61840 -76.22661 28886 ft 454 kts 116°
2026-04-29 11:47 -12.63237 -76.19766 29556 ft 454 kts 116°
2026-04-29 11:48 -12.64631 -76.16878 30233 ft 452 kts 115°
2026-04-29 11:48 -12.66024 -76.13992 30828 ft 450 kts 115°
2026-04-29 11:48 -12.67408 -76.11123 31415 ft 449 kts 115°
2026-04-29 11:48 -12.68796 -76.08244 31849 ft 451 kts 115°
2026-04-29 11:49 -12.70187 -76.05356 32306 ft 452 kts 115°
2026-04-29 11:49 -12.71580 -76.02466 32775 ft 453 kts 115°
2026-04-29 11:49 -12.72971 -75.99578 33229 ft 453 kts 115°
2026-04-29 11:49 -12.74353 -75.96685 33602 ft 450 kts 112°
2026-04-29 11:50 -12.75391 -75.93689 34061 ft 441 kts 103°
2026-04-29 11:50 -12.76132 -75.90658 34450 ft 437 kts 101°
2026-04-29 11:50 -12.76785 -75.87615 34642 ft 438 kts 99°
2026-04-29 11:50 -12.77423 -75.84549 34709 ft 441 kts 100°
2026-04-29 11:51 -12.78070 -75.81508 34880 ft 443 kts 100°
2026-04-29 11:51 -12.78750 -75.78422 34996 ft 447 kts 100°
2026-04-29 11:51 -12.79458 -75.75300 35124 ft 451 kts 101°
2026-04-29 11:51 -12.80181 -75.72163 35220 ft 454 kts 101°
2026-04-29 11:52 -12.81659 -75.65834 35449 ft 458 kts 101°
2026-04-29 11:52 -12.82403 -75.62660 35556 ft 461 kts 101°
2026-04-29 11:52 -12.83158 -75.59440 35671 ft 464 kts 101°
2026-04-29 11:53 -12.84673 -75.52959 35861 ft 471 kts 101°
2026-04-29 11:53 -12.86202 -75.46402 36047 ft 477 kts 101°
2026-04-29 11:54 -12.87752 -75.39744 36236 ft 482 kts 101°
2026-04-29 11:54 -12.89316 -75.33019 36409 ft 487 kts 101°
2026-04-29 11:55 -12.90895 -75.26224 36583 ft 492 kts 101°
2026-04-29 11:55 -12.92476 -75.19409 36747 ft 496 kts 101°
2026-04-29 11:56 -12.94077 -75.12501 36924 ft 499 kts 101°
2026-04-29 11:56 -12.95685 -75.05558 37086 ft 503 kts 101°
2026-04-29 11:57 -12.97300 -74.98563 37259 ft 505 kts 101°
2026-04-29 11:57 -12.98926 -74.91517 37335 ft 511 kts 101°
2026-04-29 11:58 -13.00567 -74.84399 37349 ft 514 kts 101°
2026-04-29 11:58 -13.02206 -74.77283 37350 ft 515 kts 101°
2026-04-29 11:59 -13.03851 -74.70132 37350 ft 514 kts 101°
2026-04-29 11:59 -13.05488 -74.63003 37355 ft 512 kts 100°
2026-04-29 12:00 -13.07121 -74.55885 37353 ft 511 kts 101°
2026-04-29 12:00 -13.08733 -74.48843 37364 ft 509 kts 101°
2026-04-29 12:01 -13.10348 -74.41777 37383 ft 508 kts 101°
2026-04-29 12:01 -13.11957 -74.34741 37379 ft 506 kts 101°
2026-04-29 12:02 -13.13300 -74.28846 37400 ft 506 kts 101°
2026-04-29 12:02 -13.15163 -74.20665 37402 ft 507 kts 101°
2026-04-29 12:03 -13.16498 -74.14803 37393 ft 507 kts 101°
2026-04-29 12:03 -13.17677 -74.11403 37426 ft 509 kts 116°
2026-04-29 12:03 -13.19551 -74.08303 37412 ft 512 kts 124°
2026-04-29 12:04 -13.23912 -74.02475 37399 ft 516 kts 127°
2026-04-29 12:04 -13.28309 -73.96640 37371 ft 518 kts 125°
2026-04-29 12:05 -13.32498 -73.90625 37341 ft 517 kts 122°
2026-04-29 12:05 -13.36396 -73.84421 37341 ft 517 kts 120°
2026-04-29 12:06 -13.40000 -73.78026 37335 ft 516 kts 117°
2026-04-29 12:06 -13.43286 -73.71488 37306 ft 515 kts 114°
2026-04-29 12:07 -13.46253 -73.64818 37314 ft 512 kts 111°
2026-04-29 12:07 -13.48748 -73.58079 37160 ft 500 kts 103°
2026-04-29 12:08 -13.49458 -73.54594 36843 ft 497 kts 95°
2026-04-29 12:08 -13.49731 -73.51034 36135 ft 503 kts 88°
2026-04-29 12:08 -13.49661 -73.47440 35738 ft 505 kts 84°
2026-04-29 12:08 -13.49408 -73.43821 35609 ft 510 kts 82°
2026-04-29 12:09 -13.49091 -73.40192 35433 ft 510 kts 82°
2026-04-29 12:09 -13.48774 -73.36580 35419 ft 506 kts 82°
2026-04-29 12:09 -13.48212 -73.29397 35399 ft 508 kts 83°
2026-04-29 12:10 -13.47729 -73.22121 35364 ft 511 kts 83°
2026-04-29 12:10 -13.47268 -73.14822 35314 ft 512 kts 83°
2026-04-29 12:11 -13.46803 -73.07522 35243 ft 509 kts 83°
2026-04-29 12:11 -13.46569 -73.03913 35097 ft 507 kts 83°
2026-04-29 12:11 -13.46333 -73.00292 34781 ft 508 kts 83°
2026-04-29 12:12 -13.46093 -72.96657 34414 ft 511 kts 84°
2026-04-29 12:12 -13.45853 -72.93006 34270 ft 512 kts 84°
2026-04-29 12:12 -13.45372 -72.85710 34250 ft 513 kts 84°
2026-04-29 12:13 -13.44895 -72.78464 34172 ft 501 kts 84°
2026-04-29 12:13 -13.44434 -72.71463 34020 ft 479 kts 84°
2026-04-29 12:14 -13.44212 -72.68106 33586 ft 463 kts 84°
2026-04-29 12:14 -13.43997 -72.64879 32917 ft 454 kts 84°
2026-04-29 12:14 -13.43779 -72.61645 32168 ft 458 kts 84°
2026-04-29 12:14 -13.43557 -72.58369 31831 ft 458 kts 84°
2026-04-29 12:15 -13.43338 -72.55122 31659 ft 454 kts 84°
2026-04-29 12:15 -13.43121 -72.51895 31383 ft 452 kts 84°
2026-04-29 12:15 -13.42903 -72.48668 31005 ft 454 kts 84°
2026-04-29 12:15 -13.42685 -72.45435 30602 ft 455 kts 84°
2026-04-29 12:16 -13.42466 -72.42178 30217 ft 457 kts 85°
2026-04-29 12:16 -13.42244 -72.38923 29811 ft 457 kts 85°
2026-04-29 12:16 -13.42023 -72.35659 29445 ft 457 kts 85°
2026-04-29 12:16 -13.41789 -72.32408 29064 ft 453 kts 85°
2026-04-29 12:17 -13.41752 -72.29171 28512 ft 457 kts 94°
2026-04-29 12:17 -13.42199 -72.25931 28097 ft 456 kts 98°
2026-04-29 12:17 -13.42487 -72.22687 27648 ft 457 kts 91°
2026-04-29 12:17 -13.42526 -72.19411 27293 ft 457 kts 89°
2026-04-29 12:18 -13.42482 -72.16153 26969 ft 456 kts 88°
2026-04-29 12:18 -13.42407 -72.12900 26624 ft 456 kts 88°
2026-04-29 12:18 -13.42320 -72.09644 26265 ft 455 kts 88°
2026-04-29 12:18 -13.42223 -72.06428 26154 ft 444 kts 88°
2026-04-29 12:19 -13.42123 -72.03353 25982 ft 416 kts 88°
2026-04-29 12:19 -13.42020 -72.00417 25761 ft 407 kts 88°
2026-04-29 12:19 -13.41912 -71.97538 25602 ft 398 kts 88°
2026-04-29 12:19 -13.41799 -71.94725 25428 ft 390 kts 88°
2026-04-29 12:20 -13.41685 -71.92001 25146 ft 385 kts 88°
2026-04-29 12:20 -13.41563 -71.89267 24756 ft 383 kts 88°
2026-04-29 12:20 -13.41437 -71.86582 24393 ft 366 kts 88°
2026-04-29 12:20 -13.41308 -71.84032 23996 ft 350 kts 88°
2026-04-29 12:21 -13.41174 -71.81581 23450 ft 337 kts 88°
2026-04-29 12:21 -13.41039 -71.79208 22826 ft 328 kts 88°
2026-04-29 12:21 -13.40906 -71.76859 22243 ft 330 kts 88°
2026-04-29 12:21 -13.40775 -71.74523 21949 ft 324 kts 88°
2026-04-29 12:22 -13.40781 -71.72254 21597 ft 316 kts 102°
2026-04-29 12:22 -13.41559 -71.70172 21142 ft 312 kts 124°
2026-04-29 12:22 -13.42882 -71.68407 20761 ft 311 kts 131°
2026-04-29 12:22 -13.44328 -71.66764 20420 ft 308 kts 133°
2026-04-29 12:23 -13.45792 -71.65167 20082 ft 306 kts 133°
2026-04-29 12:23 -13.47232 -71.63611 19759 ft 302 kts 135°
2026-04-29 12:23 -13.48937 -71.62413 19413 ft 296 kts 160°
2026-04-29 12:23 -13.50915 -71.62121 19235 ft 284 kts 185°
2026-04-29 12:24 -13.52772 -71.62719 18818 ft 282 kts 210°
2026-04-29 12:24 -13.54263 -71.64037 18253 ft 285 kts 226°
2026-04-29 12:24 -13.55574 -71.65565 17760 ft 284 kts 229°
2026-04-29 12:24 -13.56840 -71.67117 17306 ft 281 kts 231°
2026-04-29 12:25 -13.58002 -71.68702 17232 ft 280 kts 233°
2026-04-29 12:25 -13.59116 -71.70312 17250 ft 267 kts 238°
2026-04-29 12:25 -13.59996 -71.73969 15717 ft 272 kts 273°
2026-04-29 12:26 -13.59665 -71.75845 15260 ft 262 kts 288°
2026-04-29 12:26 -13.58961 -71.77556 14708 ft 258 kts 295°
2026-04-29 12:26 -13.58227 -71.79219 14126 ft 253 kts 294°
2026-04-29 12:26 -13.57527 -71.80847 13404 ft 242 kts 294°
2026-04-29 12:27 -13.56866 -71.82356 13000 ft 217 kts 294°
2026-04-29 12:27 -13.56218 -71.83716 12467 ft 207 kts 298°
2026-04-29 12:27 -13.55568 -71.84923 12093 ft 180 kts 300°
2026-04-29 12:27 -13.54948 -71.85998 11905 ft 179 kts 301°
2026-04-29 12:28 -13.54400 -71.87127 11797 ft 180 kts 289°
2026-04-29 12:28 -13.54156 -71.88425 11598 ft 183 kts 277°
2026-04-29 12:28 -13.53999 -71.89733 11209 ft 183 kts 277°
2026-04-29 12:28 -13.53864 -71.90997 10861 ft 170 kts 275°
2026-04-29 12:29 -13.53750 -71.92148 10736 ft 159 kts 275°
2026-04-29 12:29 -13.53653 -71.93125 10759 ft 92 kts 275°
2026-04-29 12:29 -13.53613 -71.93505 10776 ft 41 kts 276°
2026-04-29 12:29 -13.53585 -71.93765 10788 ft 29 kts 276°
2026-04-29 12:30 -13.53573 -71.93923 10798 ft 19 kts 265°
2026-04-29 12:30 -13.53613 -71.94039 10802 ft 17 kts 245°
2026-04-29 12:30 -13.53651 -71.94127 10807 ft 10 kts 246°
2026-04-29 12:30 -13.53672 -71.94186 10810 ft 8 kts 257°
2026-04-29 12:31 -13.53674 -71.94215 10813 ft 0 kts 269°
2026-04-29 12:31 -13.53674 -71.94216 10813 ft 1 kts 269°
2026-04-29 12:31 -13.53679 -71.94232 10801 ft 3 kts 245°
2026-04-29 12:32 -13.53692 -71.94245 10820 ft 3 kts 220°
2026-04-29 12:32 -13.53704 -71.94258 10820 ft 3 kts 231°
2026-04-29 12:32 -13.53711 -71.94275 10816 ft 3 kts 247°
2026-04-29 12:32 -13.53717 -71.94292 10814 ft 3 kts 251°
2026-04-29 12:33 -13.53721 -71.94306 10815 ft 0 kts 253°